Wind_Speed
24 24 23 22 21 21 22 21 19 18 18 22 21 19 19 20 19 16 16 12 13 10 5 4 5 6 7 7 6 4 6 9 15 9 8 5 6 3 1 5 3 4 1 6 15
24 24 24 24 23 22 22 22 21 20 19 19 21 19 18 19 21 20 19 17 11 7 3 7 6 8 7 8 5 8 9 11 7 5 6 5 5 3 5 8 9 7 5 6 15
23 23 24 25 25 25 24 23 23 19 19 19 18 18 17 15 19 3 10 9 7 5 6 6 6 9 11 8 9 6 10 9 6 6 4 6 7 8 8 11 13 12 11 12 15
25 26 25 24 24 25 24 24 24 23 18 17 17 15 13 6 6 0 5 6 5 6 6 6 9 10 8 11 12 9 17 14 9 3 5 8 10 9 13 19 9 5 6 12 17
27 27 27 26 25 24 24 23 23 22 21 17 14 13 8 9 15 14 14 14 8 7 8 9 10 11 11 6 8 14 14 11 12 10 11 12 14 14 19 16 13 11 9 12 15
27 27 28 28 27 25 24 23 22 22 21 18 14 11 9 15 9 13 12 9 7 8 8 7 6 7 10 9 10 3 9 13 13 14 11 12 16 15 13 6 11 18 15 14 15
28 28 28 29 29 28 25 23 22 21 21 17 13 9 14 19 6 7 10 7 8 8 8 6 4 6 3 8 11 10 12 13 16 18 12 4 14 17 23 15 11 12 14 14 15
30 29 29 30 31 30 29 25 23 21 22 13 9 5 11 9 12 13 10 8 8 5 3 4 4 6 7 4 7 9 12 8 8 6 4 6 9 6 5 7 8 8 8 8 11
27 30 30 30 31 31 31 29 24 20 12 7 4 7 12 11 12 10 14 10 8 5 3 2 3 8 4 9 10 12 10 14 7 9 4 11 7 5 4 5 8 11 12 12 10
29 29 29 30 31 30 30 28 22 16 8 8 8 5 14 8 9 12 12 13 8 7 4 6 6 8 8 11 8 10 14 9 8 7 7 10 16 16 18 19 20 17 18 15 13
27 29 29 29 29 29 29 20 12 9 16 12 6 9 2 7 11 11 11 12 9 10 10 10 8 10 14 15 16 9 10 11 10 1 2 12 17 20 15 17 18 18 16 11 14
27 30 32 30 29 29 28 13 12 8 12 19 29 26 15 13 11 13 13 12 11 12 12 5 12 15 6 5 9 11 12 13 11 4 3 12 18 17 15 6 3 6 9 6 7
30 32 30 28 28 23 16 15 16 15 9 19 20 22 24 19 16 18 17 15 9 13 12 14 2 5 4 5 8 11 12 11 11 7 14 11 14 6 5 5 3 1 4 4 6
32 27 28 26 18 11 13 11 15 5 6 11 9 10 23 15 14 12 18 11 8 11 12 10 3 6 9 12 10 11 3 6 6 6 4 1 6 9 10 5 6 6 7 5 4
28 28 30 21 20 18 17 17 14 5 5 2 10 7 17 17 18 12 14 9 10 9 5 4 7 7 8 7 4 1 2 3 6 8 9 9 4 3 8 5 8 7 7 3 4
30 31 32 23 16 19 15 12 13 6 8 5 5 9 14 15 8 12 10 5 0 5 8 13 4 3 6 3 2 5 2 6 5 4 5 6 6 4 5 3 8 8 5 0 7
32 31 35 23 19 15 10 7 4 8 2 5 4 9 15 12 10 11 9 10 7 5 8 8 11 3 5 6 5 6 3 3 4 4 3 4 5 8 5 6 3 5 1 7 10
34 36 21 17 14 12 14 5 5 5 11 6 2 8 13 9 6 10 12 8 6 3 2 6 6 11 8 7 2 11 5 4 5 3 3 5 6 1 4 7 7 4 3 6 9
34 24 16 10 6 8 5 4 4 3 12 4 4 4 6 4 3 8 11 7 5 5 6 4 3 5 1 1 3 5 6 3 3 3 4 7 7 5 7 7 6 5 6 10 12
27 22 10 16 4 5 3 4 5 4 11 6 8 7 8 9 7 7 7 3 4 1 1 2 2 2 4 2 2 4 3 2 3 4 5 5 7 2 9 7 2 6 9 13 14
19 11 7 13 1 2 3 5 7 10 9 4 2 7 4 4 5 4 1 5 2 4 1 3 1 4 3 8 7 4 3 4 3 3 3 5 0 2 7 5 3 5 7 12 15
11 5 14 17 2 4 5 3 6 8 7 4 3 1 5 3 4 3 4 1 3 5 3 2 1 4 2 3 2 5 6 9 4 5 3 3 5 3 6 4 2 5 7 11 13
17 8 8 11 3 3 7 7 5 9 2 4 4 2 7 3 1 6 5 4 5 2 2 3 3 3 3 1 4 5 8 7 2 1 8 5 0 4 3 3 2 4 7 10 12
7 4 5 5 7 4 7 5 3 4 2 3 2 4 2 3 2 3 4 2 4 2 1 1 2 5 7 3 2 3 5 9 8 5 7 11 12 5 2 3 5 4 8 9 11
4 3 5 6 8 13 8 4 6 3 5 5 1 4 3 2 3 2 6 4 4 3 3 2 4 3 11 12 10 12 9 10 14 16 8 9 7 6 8 4 3 4 7 9 11
4 4 6 13 14 8 3 3 7 1 2 3 3 2 1 1 2 4 3 5 2 3 2 1 2 5 7 9 9 14 15 15 15 18 18 18 20 13 3 2 2 4 7 9 12
6 6 6 8 6 7 5 7 8 2 0 5 0 2 2 5 8 9 7 7 4 3 4 2 3 2 3 1 5 10 12 11 9 9 11 13 12 6 1 2 2 5 6 9 12
Wind_Direction
4 1 358 353 348 345 339 333 324 313 300 291 285 296 303 311 316 307 280 251 228 224 242 234 206 187 196 224 230 250 249 245 245 251 246 132 212 190 269 243 193 193 272 131 163
4 1 360 356 352 349 343 336 327 320 310 299 289 287 298 310 312 294 267 259 214 220 213 206 214 191 200 223 220 222 243 256 319 264 265 181 240 212 237 221 221 224 191 173 174
358 358 357 355 353 349 345 339 331 323 316 306 297 290 289 308 310 283 257 202 211 213 211 224 215 203 228 216 216 213 244 309 270 270 268 258 245 234 246 256 251 241 217 193 189
350 348 349 349 349 346 343 340 335 329 318 309 300 294 285 303 291 281 212 235 243 213 196 211 215 215 239 215 219 252 244 267 282 255 260 253 273 252 241 251 285 256 256 201 203
338 337 337 337 338 339 337 336 334 328 321 308 295 291 301 254 253 257 274 257 247 213 214 220 232 243 249 247 233 236 268 267 265 258 260 269 257 265 266 262 256 245 234 218 218
326 325 325 326 326 327 328 328 325 322 318 307 289 273 267 261 235 253 252 231 210 209 222 225 250 252 286 251 235 341 265 266 265 251 245 253 264 258 262 252 251 244 238 234 230
318 318 318 318 317 317 318 319 314 312 310 302 279 257 262 248 232 229 230 211 212 204 225 240 247 230 292 249 248 269 274 266 249 243 243 268 263 242 249 261 251 241 240 239 232
320 318 317 315 313 311 310 310 306 305 304 292 267 234 259 253 229 236 209 199 201 203 209 215 229 251 240 301 249 256 245 267 95 157 165 206 266 104 148 208 233 230 223 227 229
309 315 316 315 312 310 310 310 306 300 288 279 223 227 262 245 229 207 201 196 178 169 169 220 219 246 215 231 246 218 260 211 190 181 181 218 282 80 165 216 247 249 246 249 240
315 308 308 308 310 310 307 309 309 286 255 222 222 234 237 237 196 186 192 185 175 174 182 208 231 237 218 221 220 254 223 254 259 157 208 242 254 266 259 254 263 258 262 259 225
323 318 310 310 316 310 309 324 271 233 219 226 209 228 206 182 177 184 178 177 182 205 228 191 239 227 233 225 252 294 286 276 276 217 260 257 268 273 273 264 260 254 258 243 215
319 317 313 309 303 308 309 283 297 277 286 256 257 254 232 205 191 195 180 193 200 220 207 195 239 250 319 292 259 253 262 264 275 4 237 271 277 274 281 300 301 279 261 228 195
329 324 321 315 314 306 286 283 276 278 262 281 238 235 218 217 219 203 190 209 212 221 200 235 43 103 175 205 231 241 253 265 283 303 258 282 274 231 175 176 190 123 182 200 201
331 333 331 317 320 307 299 288 294 289 269 254 203 231 194 202 218 208 191 188 204 224 220 247 149 210 246 251 242 257 329 273 275 280 283 160 291 214 191 188 210 162 150 147 202
335 332 331 318 298 294 288 285 304 240 265 73 134 140 176 184 135 181 179 194 200 185 202 125 175 194 227 247 198 351 25 262 277 275 313 244 235 175 164 223 182 172 154 151 302
326 324 329 322 297 290 278 272 299 236 228 161 139 180 173 211 187 143 171 186 320 211 233 270 102 240 251 94 257 106 242 240 259 269 250 190 216 257 155 183 143 137 154 6 304
329 322 318 303 277 275 279 245 221 249 157 169 195 183 197 189 172 173 171 178 175 168 214 213 222 137 201 192 173 208 215 231 210 201 263 177 214 289 134 131 106 120 333 327 319
329 330 320 308 280 271 275 247 206 325 220 95 286 190 205 183 190 192 170 179 216 249 179 232 197 190 171 230 271 198 211 287 296 274 26 171 237 146 109 116 126 139 349 329 323
334 330 326 326 318 259 316 237 226 13 312 282 128 184 189 216 187 187 214 219 133 191 208 200 176 118 136 179 268 156 215 19 296 228 264 236 201 156 153 156 173 142 356 343 337
338 330 333 334 265 230 249 284 261 5 329 346 288 221 203 180 202 195 190 26 131 97 29 110 232 184 121 183 212 271 116 171 205 255 246 234 253 217 167 160 148 8 357 337 337
341 332 315 351 252 202 260 248 284 291 285 303 237 297 293 140 197 217 241 115 103 139 141 144 244 124 165 207 190 168 206 220 307 265 288 293 180 9 110 90 342 331 343 334 328
337 321 323 332 261 247 248 262 342 313 331 292 269 101 286 129 182 224 165 128 139 140 163 130 236 242 191 84 335 301 246 208 249 167 229 302 284 104 111 80 334 338 338 330 325
329 291 309 348 290 258 270 273 269 296 47 302 297 211 223 190 156 211 114 98 114 114 120 163 198 230 206 164 202 232 209 199 219 293 243 261 201 164 151 266 92 332 336 326 326
329 312 317 341 313 307 315 278 272 346 296 252 356 350 286 202 112 196 116 127 117 59 14 21 265 273 289 33 78 205 216 211 203 235 254 231 270 209 272 227 19 25 333 326 327
337 307 330 319 329 317 296 313 311 321 357 339 340 268 238 177 155 210 98 115 129 68 57 3 271 257 282 283 266 252 246 224 223 238 261 273 300 338 312 343 34 338 333 335 339
305 312 319 293 309 309 290 287 317 312 281 305 287 278 202 15 46 171 109 162 179 127 155 50 272 320 288 272 271 267 255 243 235 242 263 271 275 287 12 78 47 355 342 342 339
317 306 316 289 311 309 326 332 315 130 354 4 282 167 154 62 65 81 85 74 93 141 184 234 287 284 278 299 301 265 242 233 238 243 252 261 280 334 6 16 25 337 344 338 339
Height
1514 1511 1507 1504 1501 1497 1494 1492 1490 1487 1484 1483 1480 1477 1475 1473 1472 1472 1471 1469 1466 1467 1468 1469 1468 1468 1471 1473 1473 1472 1465 1455 1447 1447 1445 1453 1454 1459 1459 1458 1461 1463 1464 1466 1468
1514 1511 1507 1504 1500 1495 1493 1489 1488 1485 1482 1479 1477 1474 1472 1471 1468 1467 1467 1464 1463 1465 1467 1468 1470 1468 1468 1470 1471 1468 1460 1449 1446 1445 1450 1453 1455 1455 1459 1457 1458 1461 1464 1464 1466
1515 1510 1507 1503 1499 1495 1492 1488 1486 1481 1478 1477 1474 1472 1470 1469 1467 1461 1461 1462 1463 1463 1465 1467 1467 1468 1466 1466 1466 1463 1457 1450 1451 1454 1456 1455 1456 1456 1457 1455 1453 1455 1459 1462 1465
1511 1509 1504 1502 1497 1494 1490 1485 1482 1480 1476 1473 1472 1470 1468 1468 1464 1460 1460 1462 1462 1463 1464 1465 1467 1465 1464 1461 1458 1462 1456 1454 1455 1457 1457 1456 1455 1455 1455 1453 1454 1456 1458 1460 1462
1508 1505 1501 1497 1495 1491 1488 1483 1479 1477 1474 1472 1469 1467 1467 1466 1461 1457 1459 1459 1461 1461 1463 1464 1463 1462 1458 1457 1457 1457 1453 1454 1456 1456 1457 1456 1455 1454 1451 1451 1453 1455 1456 1458 1459
1505 1501 1498 1494 1491 1487 1484 1480 1476 1474 1471 1468 1466 1465 1466 1462 1455 1455 1456 1457 1458 1460 1463 1463 1461 1460 1460 1457 1457 1452 1453 1452 1453 1453 1453 1453 1450 1451 1446 1447 1449 1451 1453 1455 1456
1502 1498 1494 1490 1487 1483 1479 1476 1473 1470 1468 1463 1463 1461 1462 1455 1453 1452 1453 1455 1456 1458 1460 1461 1461 1461 1458 1456 1455 1455 1453 1445 1444 1446 1448 1452 1448 1440 1442 1444 1446 1447 1449 1451 1453
1499 1495 1491 1486 1482 1479 1476 1472 1470 1464 1462 1460 1458 1457 1455 1448 1449 1448 1451 1453 1454 1455 1457 1458 1459 1460 1460 1456 1456 1453 1447 1444 1436 1443 1449 1452 1436 1432 1439 1443 1443 1444 1445 1448 1450
1496 1491 1488 1483 1479 1475 1470 1468 1465 1459 1460 1457 1457 1457 1451 1445 1445 1446 1450 1451 1451 1454 1455 1457 1459 1458 1458 1455 1448 1444 1437 1430 1429 1440 1443 1448 1435 1432 1439 1441 1440 1441 1443 1444 1448
1491 1485 1482 1478 1475 1470 1465 1461 1459 1456 1456 1456 1454 1456 1445 1442 1443 1443 1447 1449 1449 1452 1455 1456 1456 1453 1450 1447 1438 1429 1433 1428 1430 1435 1441 1440 1437 1433 1434 1435 1435 1438 1440 1442 1444
1486 1482 1478 1474 1470 1467 1462 1458 1458 1453 1449 1444 1440 1436 1440 1440 1440 1443 1444 1446 1447 1449 1447 1449 1449 1444 1435 1438 1434 1435 1434 1432 1428 1430 1440 1437 1431 1426 1428 1429 1431 1433 1438 1439 1441
1483 1479 1473 1469 1466 1464 1461 1459 1455 1452 1442 1437 1435 1435 1437 1438 1436 1440 1442 1444 1444 1440 1440 1447 1440 1434 1433 1437 1441 1440 1437 1431 1426 1434 1443 1433 1425 1421 1424 1430 1435 1437 1438 1437 1438
1480 1474 1469 1465 1462 1459 1457 1455 1452 1449 1442 1425 1424 1424 1430 1435 1431 1431 1437 1438 1436 1435 1435 1434 1428 1436 1439 1442 1443 1439 1436 1431 1432 1433 1432 1433 1417 1415 1428 1433 1435 1436 1436 1437 1438
1477 1471 1466 1462 1461 1457 1454 1451 1450 1448 1439 1416 1417 1415 1421 1429 1427 1428 1431 1435 1435 1432 1432 1430 1430 1437 1439 1439 1437 1437 1435 1436 1440 1440 1432 1433 1425 1411 1418 1430 1430 1434 1436 1437 1439
1474 1469 1464 1461 1457 1456 1455 1450 1450 1449 1438 1402 1412 1417 1418 1422 1419 1426 1430 1433 1429 1430 1433 1426 1431 1436 1436 1434 1437 1436 1443 1443 1442 1440 1441 1422 1440 1398 1413 1422 1422 1429 1433 1437 1438
1471 1466 1461 1457 1454 1451 1450 1448 1451 1441 1425 1408 1413 1415 1418 1419 1419 1424 1427 1431 1430 1430 1431 1428 1434 1435 1434 1440 1441 1444 1445 1442 1441 1440 1442 1424 1430 1392 1407 1419 1418 1427 1433 1436 1437
1467 1461 1455 1451 1448 1447 1447 1448 1443 1434 1405 1404 1409 1413 1414 1416 1418 1419 1424 1425 1425 1434 1430 1426 1430 1435 1438 1438 1443 1444 1442 1433 1436 1443 1418 1429 1428 1405 1415 1420 1427 1432 1435 1436 1436
1463 1456 1449 1446 1444 1445 1446 1444 1435 1423 1399 1408 1410 1410 1413 1415 1415 1416 1419 1421 1425 1425 1426 1420 1425 1432 1436 1433 1430 1437 1438 1430 1419 1406 1406 1431 1422 1402 1416 1423 1429 1433 1435 1435 1434
1458 1452 1447 1445 1443 1444 1446 1433 1420 1425 1419 1408 1416 1412 1419 1419 1419 1417 1414 1412 1418 1429 1430 1428 1420 1435 1437 1438 1437 1435 1441 1439 1440 1431 1424 1399 1399 1415 1419 1423 1428 1431 1433 1432 1430
1457 1450 1447 1444 1442 1444 1444 1430 1420 1421 1420 1417 1414 1407 1408 1418 1421 1415 1414 1425 1430 1434 1436 1435 1432 1432 1440 1440 1440 1438 1437 1441 1440 1428 1411 1387 1396 1387 1414 1419 1423 1428 1431 1431 1428
1458 1452 1448 1445 1444 1444 1438 1427 1423 1421 1423 1421 1425 1419 1407 1413 1414 1417 1420 1431 1434 1437 1436 1439 1444 1439 1439 1436 1425 1440 1441 1439 1443 1434 1417 1403 1390 1419 1421 1427 1430 1431 1431 1429 1427
1460 1457 1448 1446 1446 1441 1432 1427 1428 1423 1423 1423 1420 1423 1417 1416 1417 1420 1426 1429 1436 1436 1437 1438 1441 1434 1426 1435 1437 1432 1428 1433 1432 1432 1430 1433 1413 1423 1426 1429 1430 1430 1429 1428 1425
1461 1455 1448 1447 1442 1434 1429 1428 1428 1424 1425 1429 1423 1420 1422 1419 1424 1417 1425 1438 1439 1438 1440 1441 1440 1426 1434 1441 1437 1434 1429 1433 1442 1443 1427 1421 1401 1422 1425 1427 1428 1429 1428 1427 1424
1463 1458 1450 1447 1446 1442 1436 1429 1428 1426 1425 1425 1424 1422 1420 1421 1422 1424 1433 1440 1441 1442 1443 1444 1442 1436 1416 1431 1433 1437 1434 1433 1439 1431 1417 1414 1406 1414 1418 1423 1426 1428 1428 1426 1424
1464 1461 1458 1449 1444 1443 1441 1435 1426 1427 1429 1427 1427 1425 1425 1427 1428 1427 1434 1440 1443 1444 1446 1446 1441 1437 1433 1428 1428 1429 1432 1435 1436 1430 1428 1410 1417 1417 1421 1424 1427 1427 1427 1425 1423
1466 1464 1460 1454 1447 1444 1438 1432 1429 1428 1431 1427 1429 1424 1427 1428 1428 1430 1433 1434 1435 1444 1447 1449 1437 1438 1435 1423 1424 1425 1423 1423 1427 1430 1425 1421 1417 1419 1423 1425 1426 1426 1425 1424 1422
1464 1463 1462 1452 1448 1444 1437 1436 1431 1431 1433 1431 1430 1430 1431 1435 1434 1434 1436 1438 1439 1443 1446 1447 1442 1438 1422 1424 1431 1421 1419 1419 1419 1420 1420 1421 1416 1420 1421 1423 1426 1426 1426 1424 1422